This is the latest recevied weather packets stored in our database for station/object IA5FYI-13. If no packets are shown the sender has not sent any weather packets the latest 10 day(s).
| Time | Temp. | Humidity | Pressure | Rain* | Wind** | Luminosity | Snow |
|---|---|---|---|---|---|---|---|
| 1777818012 | 22.22° C | 58% | 1016.9 hPa | 0 mm | - | - | - |
| 1777817412 | 22.22° C | 60% | 1016.9 hPa | 0 mm | - | - | - |
| 1777815612 | 21.11° C | 62% | 1017.3 hPa | 0 mm | - | - | - |
| 1777811422 | 21.11° C | 49% | 1018.3 hPa | 0 mm | - | - | - |
| 1777810813 | 21.11° C | 44% | 1018.6 hPa | 0 mm | - | - | - |
| 1777809630 | 21.11° C | 54% | 1018.6 hPa | 0 mm | - | - | - |
| 1777806030 | 18.89° C | 66% | 1018.6 hPa | 0 mm | - | - | - |
| 1777802709 | 18.89° C | 73% | 1019.3 hPa | 0 mm | - | - | - |
| 1777801812 | 18.89° C | 70% | 1019.3 hPa | 0 mm | - | - | - |
| 1777801212 | 18.89° C | 69% | 1019.3 hPa | 0 mm | - | - | - |
| 1777800909 | 18.89° C | 69% | 1019.3 hPa | 0 mm | - | - | - |
| 1777800622 | 18.89° C | 70% | 1019.3 hPa | 0 mm | - | - | - |
| 1777800309 | 18.89° C | 71% | 1019 hPa | 0 mm | - | - | - |
| 1777800013 | 18.89° C | 71% | 1019.3 hPa | 0 mm | - | - | - |
| 1777799712 | 18.89° C | 69% | 1019 hPa | 0 mm | - | - | - |
| 1777799412 | 18.89° C | 71% | 1019.3 hPa | 0 mm | - | - | - |
| 1777799109 | 20° C | 67% | 1019.3 hPa | 0 mm | - | - | - |
| 1777798830 | 20° C | 66% | 1019 hPa | 0 mm | - | - | - |
| 1777798509 | 18.89° C | 61% | 1019 hPa | 0 mm | - | - | - |
| 1777798212 | 18.89° C | 60% | 1019.3 hPa | 0 mm | - | - | - |
| 1777797612 | 20° C | 59% | 1019 hPa | 0 mm | - | - | - |
| 1777797309 | 20° C | 61% | 1019 hPa | 0 mm | - | - | - |
| 1777797022 | 20° C | 63% | 1019 hPa | 0 mm | - | - | - |
| 1777796708 | 18.89° C | 61% | 1019 hPa | 0 mm | - | - | - |
| 1777796412 | 18.89° C | 63% | 1018.6 hPa | 0 mm | - | - | - |
* Rain latest hour (hover to see other rain measurements)
** Current wind speed in m/s (hover to see current wind gust speed)